Tracking 35331 objects as of 15-Sep-2026
HD Live streaming from Space Station
objects crossing your sky now

STARLINK-3896

Track STARLINK-3896 now!
10-day predictions
STARLINK-3896 is classified as:


NORAD ID: 52456
Int'l Code: 2022-049F
Launch date: May 6, 2022
Source: United States (US)
Launch site: AIR FORCE EASTERN TEST RANGE (AFETR)
Your satellite tracking list
Your tracking list is empty




NASA's NSSDC Master Catalog

Two Line Element Set (TLE):
1 52456U 22049F   26257.53311587  .00000369  00000-0  23657-4 0  9999
2 52456  53.1613 295.6761 0001241  82.7008 277.4134 15.31706523240694
Source of the keplerian elements: AFSPC